Weather Roundup
Issued by NWS

Home | Current Version | Previous Version | Text Only | Print | Product List | Glossary On
Versions: 1 2 3 4 5 6 7 8 9 10 11 12 13 14 15 16 17 18 19 20 21 22 23 24 25 26 27 28 29 30 31 32 33 34 35 36 37 38 39 40 41 42 43 44 45 46 47 48 49 50
680
NZUS93 KARX 122159
HRRWXR

CURRENT HOURLY OBSERVATIONS ACROSS
MUCH OF THE UPPER MISSISSIPPI VALLEY
NATIONAL WEATHER SERVICE LA CROSSE WI
400 PM CST TUE DEC 12 2017


...SOUTHEAST MINNESOTA...


CITY           SKY/WX    TMP DP  RH WIND       PRES   REMARKS
ROCHESTER      CLOUDY    20  14  77 SW9       29.97F WCI   9
ROCHESTER/MAYO CLOUDY    21  12  69 SW7       29.99F WCI  12
WINONA           N/A     21   9  58 SW5       30.04F WCI  15
AUSTIN         NOT AVBL
ALBERT LEA     NOT AVBL
DODGE CENTER   CLOUDY    21  16  79 S9        29.95F WCI  11
PRESTON        CLOUDY    20  11  68 SW8       29.99F WCI  11
OWATONNA       CLOUDY    25  19  80 S8        29.95F WCI  16
FARIBAULT      CLOUDY    25  18  74 S6        29.95F WCI  18
$$

...ELSEWHERE IN MINNESOTA...


CITY           SKY/WX    TMP DP  RH WIND       PRES   REMARKS
MINNEAPOLIS    CLOUDY    20  14  77 SE8       29.96F WCI  10
INTNL FALLS    LGT SNOW  12   7  80 SE9       29.81F WCI   0
DULUTH         LGT SNOW  11   6  81 S6        29.86F WCI   1
RED WING       CLOUDY    19   9  63 SE3       29.99F
REDWOOD FALLS  CLEAR     39  28  64 SW9       29.89F WCI  33
MANKATO        CLOUDY    29  23  78 S8        29.94F WCI  21
WORTHINGTON    CLEAR     35  27  72 SW17      29.92F WCI  25
FAIRMONT       CLEAR     34  25  69 SW10      29.94F WCI  26
$$

...SOUTHWEST WISCONSIN...


CITY           SKY/WX    TMP DP  RH WIND       PRES   REMARKS
LA CROSSE      CLOUDY    21   4  47 CALM      30.04F
PRAIRIE DU CHI CLOUDY    23   5  46 W5        30.06F WCI  17
BOSCOBEL       CLOUDY    22   2  42 CALM      30.06F
LONE ROCK      NOT AVBL
PLATTEVILLE    CLOUDY    22   6  49 W13       30.04F WCI  10
FORT MC COY    CLOUDY    18   0  46 W3        30.04F
CAMP DOUGLAS   MOCLDY    16   0  48 W3        30.01F
MAUSTON-NEW LI CLOUDY    17   2  52 W5        30.02F WCI  10
VIROQUA        CLOUDY    18   4  55 W8        30.00F WCI   7
WIS DELLS      PTCLDY    17  -3  40 W9        30.02S WCI   6
$$

...ELSEWHERE IN WISCONSIN...


CITY           SKY/WX    TMP DP  RH WIND       PRES   REMARKS
MILWAUKEE      PTCLDY    19   3  49 NW12      30.01S WCI   7
MADISON        PTCLDY    18   0  45 NW6       30.01F WCI  10
GREEN BAY      PTCLDY    17   3  54 NW12      29.99F WCI   4
EAU CLAIRE     NOT AVBL
BLACK RVR FLS  CLOUDY    18  -2  41 SW5       30.02F WCI  11
MEDFORD        CLEAR     11  -2  54 CALM      29.93F
WAUSAU         CLEAR     12   0  58 W9        29.94F WCI   0
WIS RAPIDS     CLEAR     14  -1  51 W8        30.00F WCI   3
MARSHFIELD     CLOUDY    11  -2  56 W5        29.95F WCI   3
RICE LAKE      FLURRIES  14   4  64 S8        29.98F WCI   3
$$

...NORTHEAST IOWA...


CITY           SKY/WX    TMP DP  RH WIND       PRES   REMARKS
WATERLOO       CLOUDY    27   9  46 SW7       30.04F WCI  19
DUBUQUE        CLOUDY    21   9  59 W12       30.04F WCI   9
DECORAH        CLOUDY    21   7  53 VRB7      30.00F WCI  13
MASON CITY     CLOUDY    31  19  61 SW12      29.99F WCI  22
CHARLES CITY   CLOUDY    27  12  54 SW7       30.02F WCI  19
OELWEIN        CLOUDY    25   7  46 W9        30.04F WCI  15
$$

...ELSEWHERE IN IOWA...


CITY           SKY/WX    TMP DP  RH WIND       PRES   REMARKS
DES MOINES     PTCLDY    33  16  49 W8        30.08F WCI  26
IOWA CITY      CLOUDY    29   2  31 W12       30.12F WCI  19
FORT DODGE     CLEAR     34  21  59 W12       30.02F WCI  25
MARSHALLTOWN   CLOUDY    29  13  51 W8        30.05F WCI  21
CEDAR RAPIDS   CLOUDY    26   4  38 W10       30.07F WCI  16
$$

...NORTHERN ILLINOIS...


CITY           SKY/WX    TMP DP  RH WIND       PRES   REMARKS
CHICAGO-OHARE  PTCLDY    20   8  60 W10       30.02F WCI   9
CHICAGO-MIDWAY PTCLDY    22   8  55 NW16      30.04S WCI   8
MOLINE         CLEAR     28   3  34 W10       30.10S WCI  19
ROCKFORD       CLOUDY    20   9  62 W8        30.05F WCI  10
PEORIA         CLEAR     28   2  32 W7        30.10F WCI  21
$$

NOTE: "FAIR" INDICATES FEW OR NO CLOUDS BELOW 12,000 FEET WITH NO
SIGNIFICANT WEATHER AND/OR OBSTRUCTIONS TO VISIBILITY. WIND
SPEEDS ARE IN MILES-PER-HOUR.




USA.gov is the U.S. government's official web portal to all federal, state and local government web resources and services.